This is the latest recevied weather packets stored in our database for station/object EA1GHG-11. If no packets are shown the sender has not sent any weather packets the latest 10 day(s).
| Time | Temp. | Humidity | Pressure | Rain* | Wind** | Luminosity | Snow |
|---|---|---|---|---|---|---|---|
| 1787835389 | 15.56° C | 100% | 1014.6 hPa | - | - | - | - |
| 1787833889 | 16.67° C | 100% | 1014.3 hPa | - | - | - | - |
| 1787832389 | 14.44° C | 100% | 1014.1 hPa | - | - | - | - |
| 1787830889 | 14.44° C | 100% | 1014.2 hPa | - | - | - | - |
| 1787829389 | 15.56° C | 100% | 1013.9 hPa | - | - | - | - |
| 1787827889 | 15° C | 100% | 1013.9 hPa | - | - | - | - |
| 1787826389 | 14.44° C | 100% | 1014.2 hPa | - | - | - | - |
| 1787824888 | 13.89° C | 100% | 1014.5 hPa | - | - | - | - |
| 1787823388 | 14.44° C | 100% | 1014.2 hPa | - | - | - | - |
| 1787821888 | 13.89° C | 100% | 1013.7 hPa | - | - | - | - |
| 1787820388 | 13.89° C | 100% | 1013.4 hPa | - | - | - | - |
| 1787818888 | 13.33° C | 100% | 1013.7 hPa | - | - | - | - |
| 1787817388 | 13.33° C | 100% | 1013.8 hPa | - | - | - | - |
| 1787815887 | 13.33° C | 100% | 1013.8 hPa | - | - | - | - |
| 1787815289 | 13.89° C | 100% | 1013.7 hPa | - | - | - | - |
| 1787813788 | 13.33° C | 100% | 1013.6 hPa | - | - | - | - |
| 1787812288 | 13.33° C | 100% | 1013.3 hPa | - | - | - | - |
| 1787810788 | 13.33° C | 100% | 1013.8 hPa | - | - | - | - |
| 1787809288 | 13.33° C | 100% | 1014.2 hPa | - | - | - | - |
| 1787807788 | 13.89° C | 100% | 1014.5 hPa | - | - | - | - |
| 1787806288 | 13.89° C | 100% | 1014.1 hPa | - | - | - | - |
| 1787804788 | 13.33° C | 100% | 1013.7 hPa | - | - | - | - |
| 1787803288 | 13.33° C | 100% | 1013.7 hPa | - | - | - | - |
| 1787801787 | 13.33° C | 100% | 1013.8 hPa | - | - | - | - |
| 1787800287 | 13.89° C | 100% | 1014 hPa | - | - | - | - |
* Rain since midnight (hover to see other rain measurements)
** Current wind speed in m/s (hover to see current wind gust speed)